TimeEST,TemperatureF,Dew PointF,Humidity,Sea Level PressureIn,VisibilityMPH,Wind Direction,Wind SpeedMPH,Gust SpeedMPH,PrecipitationIn,Events,Conditions,WindDirDegrees,DateUTC
12:55 AM,41.5,29.8,63,29.85,10.0,West,8.1,-,N/A,,Clear,270,2012-12-19 05:55:00
1:55 AM,44.6,28.0,52,29.88,10.0,West,10.4,-,N/A,,Clear,270,2012-12-19 06:55:00
2:55 AM,41.4,31.5,68,29.90,10.0,West,8.1,-,N/A,,Clear,270,2012-12-19 07:55:00
3:55 AM,40.6,31.6,70,29.89,10.0,WSW,6.9,-,N/A,,Clear,250,2012-12-19 08:55:00
4:55 AM,40.1,31.3,71,29.90,10.0,WSW,8.1,-,N/A,,Clear,250,2012-12-19 09:55:00
5:55 AM,41.2,30.0,65,29.90,10.0,WSW,6.9,-,N/A,,Clear,240,2012-12-19 10:55:00
6:55 AM,40.8,29.8,65,29.92,10.0,WSW,8.1,-,N/A,,Clear,240,2012-12-19 11:55:00
7:55 AM,42.4,28.8,58,29.92,10.0,West,10.4,-,N/A,,Clear,260,2012-12-19 12:55:00
8:55 AM,46.6,25.3,43,29.94,10.0,West,11.5,-,N/A,,Clear,260,2012-12-19 13:55:00
9:55 AM,50.5,24.3,36,29.95,10.0,West,12.7,-,N/A,,Clear,270,2012-12-19 14:55:00
10:55 AM,55.0,22.5,28,29.97,10.0,West,17.3,-,N/A,,Clear,270,2012-12-19 15:55:00
11:55 AM,57.9,21.6,25,29.96,10.0,West,13.8,18.4,N/A,,Clear,270,2012-12-19 16:55:00
12:55 PM,60.1,17.2,19,29.96,10.0,NW,9.2,19.6,N/A,,Clear,310,2012-12-19 17:55:00
1:55 PM,59.9,18.1,20,29.95,10.0,West,15.0,-,N/A,,Clear,280,2012-12-19 18:55:00
2:55 PM,59.7,17.6,19,29.97,10.0,West,10.4,-,N/A,,Clear,280,2012-12-19 19:55:00
3:55 PM,58.5,16.9,20,29.99,10.0,Variable,4.6,-,N/A,,Clear,0,2012-12-19 20:55:00
4:55 PM,48.6,38.1,67,30.03,10.0,ESE,6.9,-,N/A,,Clear,120,2012-12-19 21:55:00
5:55 PM,46.9,39.0,74,30.04,10.0,NNE,9.2,-,N/A,,Clear,30,2012-12-19 22:55:00
6:55 PM,43.5,38.5,82,30.09,10.0,NE,4.6,-,N/A,,Clear,40,2012-12-19 23:55:00
7:55 PM,44.4,39.9,84,30.12,10.0,NNE,3.5,-,N/A,,Clear,30,2012-12-20 00:55:00
8:55 PM,41.4,38.7,90,30.15,10.0,Calm,Calm,-,N/A,,Clear,0,2012-12-20 01:55:00
9:55 PM,45.7,38.1,75,30.17,10.0,Calm,Calm,-,N/A,,Clear,0,2012-12-20 02:55:00
10:55 PM,45.7,37.2,72,30.19,10.0,NNE,5.8,-,N/A,,Clear,20,2012-12-20 03:55:00
11:55 PM,45.3,37.9,75,30.19,10.0,NE,9.2,-,N/A,,Clear,40,2012-12-20 04:55:00